Orbital Elements at Epoch 2459000.5 (2020-May-31.0) TDB
Reference: JPL 20 (heliocentric ecliptic J2000)
Element | Value | Uncertainty (1-sigma) | Units |
e | .1752929667806644 | 6.7567e-08 | |
a | 2.416678302253945 | 1.899e-08 | au |
q | 1.993051592897392 | 1.5798e-07 | au |
i | 5.728308835132802 | 5.2052e-06 | deg |
node | 243.0023154622983 | 4.5727e-05 | deg |
peri | 118.3379866838034 | 4.9252e-05 | deg |
M | 215.7344250507047 | 2.5913e-05 | deg |
tp | 2459550.404028540475 (2021-Dec-01.90402854) | 0.0001039 | TDB |
period | 1372.229309342505 3.76 | 1.6174e-05 4.428e-08 | d yr |
n | .2623468231942165 | 3.0922e-09 | deg/d |
Q | 2.840305011610498 | 2.2319e-08 | au |
|
| | Orbit Determination Parameters
Additional Information
|